Date String (YYYY-MM-DD hh:mm:ss) UTC,Instrument flags,Ambient pressure (hPa),Sample flow (lpm),Bypass flow (lpm),Sample temperature (°C),Ambient temperature (°C),ASC tube jacket temperature (°C),LED temperature (°C),Box temperature (°C),Sample RH (%),Span deviation,Mass concentration (μg/m³),Mass concentration (μg/m³),Mass concentration (μg/m³)
DateTimeUTC,F1_M11,P_M11,Q1_M11,Q2_M11,T1_M11,T2_M11,T3_M11,T4_M11,T5_M11,U1_M11,ZSPAN_M11,X0_M11,X2_M11,X1_M11
2022-10-04 11:00:00,,0830.1,5.00,0.00,29.4,27.9,00.0,38.2,31.3,23.7,0000.0,0004.81,0003.01,0002.50
2022-10-04 11:01:00,,0830.1,5.01,0.00,29.4,27.9,00.0,38.2,31.3,24.3,0000.0,0005.31,0003.16,0002.66
2022-10-04 11:02:00,,0830.1,4.99,0.00,29.4,27.9,00.0,38.2,31.3,25.5,0000.0,0006.24,0003.28,0002.81
2022-10-04 11:03:00,,0830.2,5.01,0.00,29.4,27.9,00.0,38.2,31.3,24.7,0000.0,0006.84,0003.39,0002.93
2022-10-04 11:04:00,,0830.2,5.00,0.00,29.4,27.9,00.0,38.2,31.3,24.4,0000.0,0007.26,0003.45,0003.07
2022-10-04 11:05:00,,0830.1,4.98,0.00,29.4,27.9,00.0,38.2,31.3,24.3,0000.0,0007.44,0003.54,0003.16
2022-10-04 11:06:00,,0830.1,5.00,0.00,29.4,27.9,00.0,38.2,31.3,24.2,0000.0,0007.69,0003.64,0003.23
2022-10-04 11:07:00,,0830.1,5.01,0.00,29.4,27.9,00.0,38.2,31.3,24.0,0000.0,0007.95,0003.75,0003.32
2022-10-04 11:08:00,,0830.2,4.99,0.00,29.4,27.9,00.0,38.2,31.3,23.8,0000.0,0008.03,0003.81,0003.37
2022-10-04 11:09:00,,0830.1,5.01,0.00,29.4,27.9,00.0,38.2,31.3,23.4,0000.0,0008.03,0003.81,0003.36
2022-10-04 11:10:00,,0830.1,4.99,0.00,29.4,27.9,00.0,38.2,31.3,23.6,0000.0,0007.92,0003.76,0003.34
2022-10-04 11:11:00,,0830.1,5.01,0.00,29.4,27.9,00.0,38.2,31.3,22.8,0000.0,0007.75,0003.67,0003.30
2022-10-04 11:12:00,,0830.1,5.00,0.00,29.4,27.9,00.0,38.2,31.3,21.7,0000.0,0007.64,0003.62,0003.24
2022-10-04 11:13:00,,0830.1,4.99,0.00,29.4,27.9,00.0,38.2,31.3,21.8,0000.0,0007.33,0003.56,0003.18
2022-10-04 11:14:00,,0830.1,5.00,0.00,29.4,27.9,00.0,38.2,31.3,21.1,0000.0,0006.99,0003.48,0003.14
2022-10-04 11:15:00,,0830.1,5.01,0.00,29.4,27.9,00.0,38.2,31.3,21.0,0000.0,0006.60,0003.42,0003.05
2022-10-04 11:16:00,,0830.2,5.00,0.00,29.4,27.9,00.0,38.2,31.3,21.1,0000.0,0006.51,0003.37,0002.95
2022-10-04 11:17:00,,0830.2,4.99,0.00,29.4,27.9,00.0,38.2,31.3,20.5,0000.0,0006.22,0003.31,0002.87
2022-10-04 11:18:00,,0830.2,5.01,0.00,29.4,27.9,00.0,38.2,31.3,20.4,0000.0,0007.16,0003.28,0002.77
2022-10-04 11:19:00,,0830.2,5.01,0.00,29.4,27.9,00.0,38.2,31.3,19.9,0000.0,0007.37,0003.27,0002.68
2022-10-04 11:20:00,,0830.2,4.99,0.00,29.4,27.9,00.0,38.2,31.2,19.5,0000.0,0007.38,0003.23,0002.60
2022-10-04 11:21:00,,0830.2,5.00,0.00,29.4,27.9,00.0,38.2,31.3,19.4,0000.0,0007.29,0003.19,0002.53
2022-10-04 11:22:00,,0830.3,5.01,0.00,29.4,27.9,00.0,38.2,31.3,19.2,0000.0,0007.24,0003.15,0002.47
2022-10-04 11:23:00,,0830.3,4.99,0.00,29.4,27.9,00.0,38.2,31.3,19.4,0000.0,0007.46,0003.10,0002.46
2022-10-04 11:24:00,,0830.3,5.01,0.00,29.4,27.9,00.0,38.2,31.2,19.2,0000.0,0007.67,0003.04,0002.43
2022-10-04 11:25:00,,0830.2,5.00,0.00,29.4,27.9,00.0,38.2,31.3,19.0,0000.0,0007.44,0003.00,0002.39
2022-10-04 11:26:00,,0830.3,4.99,0.00,29.4,27.9,00.0,38.2,31.3,19.1,0000.0,0007.38,0002.98,0002.38
2022-10-04 11:27:00,,0830.3,5.01,0.00,29.4,27.9,00.0,38.2,31.2,19.1,0000.0,0007.19,0002.90,0002.35
2022-10-04 11:28:00,,0830.3,4.99,0.00,29.4,27.9,00.0,38.2,31.3,19.2,0000.0,0006.78,0002.84,0002.33
2022-10-04 11:29:00,,0830.3,5.00,0.00,29.4,27.9,00.0,38.2,31.3,19.3,0000.0,0005.35,0002.76,0002.32
2022-10-04 11:30:00,,0830.3,5.00,0.00,29.4,27.9,00.0,38.2,31.3,19.3,0000.0,0005.01,0002.74,0002.33
2022-10-04 11:31:00,,0830.3,4.99,0.00,29.4,27.9,00.0,38.2,31.3,19.2,0000.0,0005.02,0002.76,0002.33
2022-10-04 11:32:00,,0830.4,5.01,0.00,29.4,27.9,00.0,38.2,31.3,19.3,0000.0,0005.16,0002.79,0002.32
2022-10-04 11:33:00,,0830.4,4.99,0.00,29.4,27.9,00.0,38.2,31.3,19.3,0000.0,0005.03,0002.79,0002.34
2022-10-04 11:34:00,,0830.4,5.00,0.00,29.4,27.9,00.0,38.2,31.3,19.3,0000.0,0004.40,0002.76,0002.33
2022-10-04 11:35:00,,0830.5,5.02,0.00,29.4,27.9,00.0,38.2,31.3,19.4,0000.0,0003.95,0002.74,0002.33
2022-10-04 11:36:00,,0830.4,4.99,0.00,29.4,27.9,00.0,38.2,31.3,19.6,0000.0,0003.94,0002.73,0002.33
2022-10-04 11:37:00,,0830.4,5.00,0.00,29.4,27.9,00.0,38.2,31.3,19.8,0000.0,0003.93,0002.71,0002.33
2022-10-04 11:38:00,,0830.4,5.01,0.00,29.4,27.9,00.0,38.2,31.3,19.9,0000.0,0004.03,0002.74,0002.35
2022-10-04 11:39:00,,0830.4,4.99,0.00,29.4,27.9,00.0,38.2,31.3,20.0,0000.0,0004.12,0002.77,0002.36
2022-10-04 11:40:00,,0830.4,5.01,0.00,29.4,27.9,00.0,38.2,31.3,20.0,0000.0,0004.13,0002.79,0002.36
2022-10-04 11:41:00,,0830.4,5.00,0.00,29.4,27.9,00.0,38.2,31.3,20.1,0000.0,0004.20,0002.80,0002.36
2022-10-04 11:42:00,,0830.4,4.98,0.00,29.4,27.9,00.0,38.2,31.3,20.2,0000.0,0004.70,0002.79,0002.36
2022-10-04 11:43:00,,0830.4,5.00,0.00,29.4,27.9,00.0,38.2,31.3,20.3,0000.0,0005.01,0002.87,0002.39
2022-10-04 11:44:00,,0830.4,5.00,0.00,29.4,27.9,00.0,38.2,31.3,20.3,0000.0,0005.04,0002.89,0002.40
2022-10-04 11:45:00,,0830.4,5.00,0.00,29.4,27.9,00.0,38.2,31.3,20.3,0000.0,0004.98,0002.91,0002.41
2022-10-04 11:46:00,,0830.4,5.00,0.00,29.4,27.9,00.0,38.2,31.3,20.3,0000.0,0005.40,0002.95,0002.43
2022-10-04 11:47:00,,0830.4,4.99,0.00,29.4,27.9,00.0,38.2,31.3,20.2,0000.0,0005.71,0002.97,0002.45
2022-10-04 11:48:00,,0830.4,5.01,0.00,29.4,27.9,00.0,38.2,31.3,20.1,0000.0,0005.72,0003.00,0002.47
2022-10-04 11:49:00,,0830.4,4.98,0.00,29.4,27.9,00.0,38.2,31.3,20.1,0000.0,0005.70,0003.02,0002.49
2022-10-04 11:50:00,,0830.4,5.00,0.00,29.4,27.9,00.0,38.2,31.3,20.1,0000.0,0005.66,0003.02,0002.51
2022-10-04 11:51:00,,0830.4,4.99,0.00,29.4,27.9,00.0,38.2,31.3,20.0,0000.0,0005.59,0003.00,0002.52
2022-10-04 11:52:00,,0830.4,5.00,0.00,29.4,27.9,00.0,38.2,31.3,20.1,0000.0,0005.48,0002.99,0002.54
2022-10-04 11:53:00,,0830.5,5.01,0.00,29.4,27.9,00.0,38.2,31.2,20.1,0000.0,0004.95,0002.98,0002.56
2022-10-04 11:54:00,,0830.5,4.99,0.00,29.4,27.9,00.0,38.2,31.3,20.1,0000.0,0004.82,0002.95,0002.57
2022-10-04 11:55:00,,0830.5,5.00,0.00,29.4,27.9,00.0,38.2,31.2,20.2,0000.0,0004.93,0002.97,0002.58
2022-10-04 11:56:00,,0830.6,5.01,0.00,29.4,27.9,00.0,38.2,31.3,20.3,0000.0,0004.90,0002.98,0002.60
2022-10-04 11:57:00,,0830.6,4.98,0.00,29.4,27.9,00.0,38.2,31.2,20.3,0000.0,0004.66,0003.00,0002.63
2022-10-04 11:58:00,,0830.6,5.01,0.00,29.4,27.9,00.0,38.2,31.2,20.3,0000.0,0004.33,0003.04,0002.65
2022-10-04 11:59:00,,0830.6,5.00,0.00,29.4,27.8,00.0,38.2,31.2,20.3,0000.0,0004.57,0003.06,0002.66
